Regional Weather Roundup
Issued by NWS

Home | Current Version | Previous Version | Text Only | Print | Product List | Glossary Off
Versions: 1 2 3 4 5 6 7 8 9 10 11 12 13 14 15 16 17 18 19 20 21 22 23 24 25 26 27 28 29 30 31 32 33 34 35 36 37 38 39 40 41 42 43 44 45 46 47 48 49 50

000
ASUS43 KLOT 260400
RWRIL

ILLINOIS REGIONAL WEATHER ROUNDUP
NATIONAL WEATHER SERVICE CHICAGO/ROMEOVILLE IL
1100 PM CDT FRI JUL 25 2014

NOTE: "FAIR" INDICATES FEW OR NO CLOUDS BELOW 12,000 FEET WITH NO
SIGNIFICANT WEATHER AND/OR OBSTRUCTIONS TO VISIBILITY.

* THESE STATIONS ARE NOT UNDER NWS QUALITY CONTROL. THEY ALSO MAY NOT
  REPORT WEATHER SUCH AS PRECIPITATION OR FOG.

ILZ001-002-007-009-015-016-024-260500-
NORTHWEST ILLINOIS

CITY           SKY/WX    TMP DP  RH WIND       PRES   REMARKS
MOLINE         CLOUDY    69  63  81 SE10      29.88R
STERLING*      CLOUDY    66  61  82 S7        29.91S
$$

ILZ003-004-008-010-011-017-018-260500-
NORTH CENTRAL ILLINOIS

CITY           SKY/WX    TMP DP  RH WIND       PRES   REMARKS
ROCKFORD       CLOUDY    67  60  78 S7        29.93F
FREEPORT*      CLOUDY    64  59  86 SE8       29.93S
$$

ILZ005-006-012>014-019>023-260500-
NORTHEAST ILLINOIS

CITY           SKY/WX    TMP DP  RH WIND       PRES   REMARKS
CHICAGO-OHARE  MOCLDY    71  57  61 SW8       29.92F
CHICAGO-MIDWAY MOCLDY    71  60  68 SW7       29.93F
AURORA         CLOUDY    68  60  75 S7        29.93F
LANSING*       CLOUDY    68  60  75 S5        29.94S
WAUKEGAN       CLOUDY    64  58  80 CALM      29.91F
DUPAGE AIRPORT CLOUDY    69  60  73 S9        29.92F
WHEELING       CLOUDY    72  59  63 S8        29.93F
NORTHERLY ISL    N/A     71  58  63 S6          N/A
$$

LMZ740>746-260500-
SOUTHERN LAKE MICHIGAN

STATION/POSITION SKY/WX   TEMP    WIND        PRES    VSBY  WAVE
                          AIR SEA DIR/SP/G                  HT/PER
                          (F)     (DEG/KT/KT) (MB)    (MI)  (FT/S)
SOUTHERN BUOY              64 62  180/  8/ 10 1013.7R         1/ 4
WAUKEGAN HARBOR            67     180/  5/  5   N/A
HARRISON CRIB              71     200/ 14/ 16   N/A
BURNHAM HARBOR             71     170/  7/ 12   N/A
CALUMET HARBOR             70     200/  4/  6 1012.4
MICHIGAN CITY              68     140/  6/ 10   N/A
MICHIGAN CITY 6N           67 68  160/  8/ 10   N/A           1/ 2
ST. JOSEPH                 67 66  160/  8/ 10   N/A           1/ 3
$$

ILZ025>027-034>036-040-047-049-050-058-095>099-260500-
WEST-CENTRAL ILLINOIS

CITY           SKY/WX    TMP DP  RH WIND       PRES   REMARKS
QUINCY         CLEAR     70  64  81 SE8       29.85F
GALESBURG*     CLOUDY    68  63  84 SE7       29.89S
MACOMB*        MOCLDY    68  63  83 SE10      29.89F
$$

ILZ028>032-037-038-041>044-048-051>054-059>061-260500-
CENTRAL ILLINOIS

CITY           SKY/WX    TMP DP  RH WIND       PRES   REMARKS
PONTIAC        MOCLDY    70  61  73 S6        29.94S
DECATUR        CLOUDY    69  61  75 SE12      29.95F
PEORIA         CLOUDY    70  61  73 SE9       29.91F
SPRINGFIELD    CLOUDY    70  62  76 SE13      29.92S
TAYLORVILLE    NOT AVBL
$$

ILZ033-039-045-046-055>057-062-063-260500-
EAST-CENTRAL ILLINOIS

CITY           SKY/WX    TMP DP  RH WIND       PRES   REMARKS
CHAMPAIGN      CLOUDY    67  62  84 SE8       29.97S
MATTOON        CLOUDY    66  61  84 SE7       29.97F
$$

ILZ079-100>102-260500-
SOUTHWEST ILLINOIS

CITY           SKY/WX    TMP DP  RH WIND       PRES   REMARKS
BELLEVILLE     CLEAR     67  65  93 E6        29.93R
CAHOKIA*       CLEAR     69  64  84 SE6       29.92S
SPARTA*        CLEAR     64  61  88 E3        29.96R
$$

ILZ064>066-069>071-074>076-080>082-084>086-088>090-092>094-260500-
SOUTH-CENTRAL ILLINOIS

CITY           SKY/WX    TMP DP  RH WIND       PRES   REMARKS
CARBONDALE     CLEAR     67  62  84 SE5       29.95R
MT. VERNON       N/A     64  57  77 CALM      29.99R VSB 1/4
SALEM*         CLEAR     69  64  86 SE5       29.98R
$$

ILZ067-068-072-073-078-083-087-091-260500-
SOUTHEAST ILLINOIS

CITY           SKY/WX    TMP DP  RH WIND       PRES   REMARKS
LAWRENCEVILLE  CLEAR     64  61  90 CALM      30.00R
HARRISBURG*    CLEAR     64  64  99 E3        29.99R
ROBINSON*      CLEAR     61  60  96 CALM      30.01S FOG
$$

ABBREVIATIONS USED IN REMARKS
   TC - TEMPERATURE IN CELSIUS
  WCI - WIND CHILL INDEX
   HX - HEAT INDEX
  VSB - VISIBILITY
$$



USA.gov is the U.S. government's official web portal to all federal, state and local government web resources and services.